Location: Braunsdorf
(50.7357°N, 11.9136°E)
Time: 07:07:16
(UTC+00:00)

Cosmos 614 Rocket - Pass Details

Date: 17 February 2020
Orbit: 733 x 764 km, 74.1° (Epoch: 31 March)

Event Time Altitude Azimuth Distance (km) Brightness Sun altitude
Rises 05:21:15 0° 216° (SW) 3,180 6.9 -10.2°
Reaches altitude 10° 05:23:38 10° 220° (SW) 2,265 6.1 -9.8°
Maximum altitude 05:28:41 57° 299° (WNW) 892 4.1 -9.0°
Drops below altitude 10° 05:33:49 10° 18° (NNE) 2,300 6.6 -8.2°
Sets 05:36:16 0° 23° (NNE) 3,233 7.4 -7.8°
